This is the latest recevied weather packets stored in our database for station/object EB5AGF-13. If no packets are shown the sender has not sent any weather packets the latest 10 day(s).
| Time | Temp. | Humidity | Pressure | Rain* | Wind** | Luminosity | Snow |
|---|---|---|---|---|---|---|---|
| 1777536302 | 20° C | 77% | 1013.5 hPa | 0 mm | 0.89 m/s, 139° | 277 W/m² | - |
| 1777535998 | 20° C | 77% | 1013.4 hPa | 0 mm | 0.45 m/s, 186° | 267 W/m² | - |
| 1777535693 | 20° C | 75% | 1013.7 hPa | 0 mm | 0.89 m/s, 221° | 257 W/m² | - |
| 1777535390 | 20° C | 75% | 1013.4 hPa | 0 mm | 0 m/s | 244 W/m² | - |
| 1777535086 | 20° C | 76% | 1013.6 hPa | 0 mm | 0 m/s | 231 W/m² | - |
| 1777534781 | 20° C | 75% | 1013.5 hPa | 0 mm | 0 m/s | 218 W/m² | - |
| 1777534478 | 20° C | 77% | 1013.3 hPa | 0 mm | 0 m/s | 208 W/m² | - |
| 1777534172 | 19.44° C | 78% | 1013.5 hPa | 0 mm | 0 m/s | 196 W/m² | - |
| 1777533870 | 19.44° C | 79% | 1013.2 hPa | 0 mm | 0 m/s | 175 W/m² | - |
| 1777533566 | 18.89° C | 79% | 1013.3 hPa | 0 mm | 0.45 m/s, 176° | 170 W/m² | - |
| 1777533262 | 19.44° C | 78% | 1013 hPa | 0 mm | 0.45 m/s, 271° | 164 W/m² | - |
| 1777532959 | 18.89° C | 78% | 1013.1 hPa | 0 mm | 0 m/s | 153 W/m² | - |
| 1777532654 | 18.89° C | 80% | 1012.9 hPa | 0 mm | 0 m/s | 142 W/m² | - |
| 1777532350 | 18.33° C | 81% | 1013.2 hPa | 0 mm | 0 m/s | 132 W/m² | - |
| 1777532046 | 17.78° C | 83% | 1013.1 hPa | 0 mm | 0 m/s | 122 W/m² | - |
| 1777531742 | 17.22° C | 84% | 1013.3 hPa | 0 mm | 0 m/s | 113 W/m² | - |
| 1777531437 | 16.67° C | 85% | 1012.8 hPa | 0 mm | 0 m/s | 104 W/m² | - |
| 1777531134 | 16.67° C | 86% | 1012.8 hPa | 0 mm | 0.45 m/s, 312° | 96 W/m² | - |
| 1777530830 | 16.67° C | 87% | 1012.8 hPa | 0 mm | 0 m/s | 87 W/m² | - |
| 1777530526 | 16.11° C | 87% | 1012.8 hPa | 0 mm | 0 m/s | 78 W/m² | - |
| 1777530222 | 16.11° C | 88% | 1012.7 hPa | 0 mm | 0 m/s | 72 W/m² | - |
| 1777529918 | 15.56° C | 88% | 1012.8 hPa | 0 mm | 0 m/s | 64 W/m² | - |
| 1777529613 | 15.56° C | 89% | 1012.8 hPa | 0 mm | 0 m/s | 55 W/m² | - |
| 1777529310 | 15.56° C | 90% | 1012.7 hPa | 0 mm | 0 m/s | 46 W/m² | - |
| 1777529006 | 15.56° C | 91% | 1012.7 hPa | 0 mm | 0 m/s | 39 W/m² | - |
* Rain latest hour (hover to see other rain measurements)
** Current wind speed in m/s (hover to see current wind gust speed)